BRO-3 (46943 NORAD) Tracking and Keplerian Element Data

This shows tracking and keplerian element data for the satellite.

Feedback or suggestion? Click here.




ElementValue
Catalog46943
NameBRO-3
Epoch Orbit941
Epoch Day21.07384662
Epoch Year2021
RAAN160.2633
Inclination97.3638
Eccentricity0.001412
Argument of Perigee87.3854
Mean Anonmoly25.5868
Mean Motion15.20599683
Decay Rate1.103E-05
L11 46943U 20085Q 21021.07384662 .00001103 00000-0 53337-4 0 9993
L22 46943 97.3638 160.2633 0014120 87.3854 25.5868 15.20599683 9414

Live tracking and technical data element details for BRO-3 (NORAD 46943). BRO-3 can be tracked NOW for your location showing map with azimuth and elevation plus other details from your city location.

Track the satellite on the map from your city or location and see movement details for azimuth, elevation, latitude, longitude, range, height, and movement on the map or in text.







IsCatalogInMostPopularTable: catalog: 46943, numindb: 36
Update: records affected: 1



GetName: 46943 BRO-3

Hit Count: updated at: Fri, 22 Jan 2021 18:51:34 GMT